Date String (YYYY-MM-DD hh:mm:ss) UTC,Instrument flags,absolute air pressure of the measurement (hPa),sample flow rate (lpm),inlet stack bypass flow (lpm),air temperature of the measurement (°C),ambient temperature measured by the external sensor (°C),aerosol sample conditioner tube jacket temperature (°C),OPC LED temperature (°C),internal box temperature (°C),relative humidity of the measurement (%),span deviation,mass concentration of particles derived from Lorenz-Mie calculation of OPC scattering (μg/m³),mass concentration of particles derived from Lorenz-Mie calculation of OPC scattering (μg/m³),mass concentration of particles derived from Lorenz-Mie calculation of OPC scattering (μg/m³)
DateTimeUTC,F1_M11,P_M11,Q1_M11,Q2_M11,T1_M11,T2_M11,T3_M11,T4_M11,T5_M11,U1_M11,ZSPAN_M11,X2_M11,X0_M11,X1_M11
2024-05-22 18:00:00,SystemResetWarning,0825.5,5.00,000.00,025.9,025.2,000.0,034.0,027.6,009.1,0000.0,0001.92,0005.59,0001.30
2024-05-22 18:01:00,SystemResetWarning,0825.5,5.00,000.00,025.9,025.2,000.0,034.1,027.7,009.6,0000.0,0001.94,0006.49,0001.30
2024-05-22 18:02:00,SystemResetWarning,0825.5,5.00,000.00,025.9,025.2,000.0,034.1,027.7,009.6,0000.0,0001.95,0007.39,0001.31
2024-05-22 18:03:00,SystemResetWarning,0825.5,5.00,000.00,025.9,025.2,000.0,034.1,027.7,008.8,0000.0,0001.95,0007.36,0001.32
2024-05-22 18:04:00,SystemResetWarning,0825.5,5.00,000.00,025.9,025.2,000.0,034.1,027.7,008.6,0000.0,0001.94,0007.29,0001.32
2024-05-22 18:05:00,SystemResetWarning,0825.5,5.00,000.00,025.9,025.2,000.0,034.1,027.7,009.0,0000.0,0001.92,0007.61,0001.32
2024-05-22 18:06:00,SystemResetWarning,0825.4,5.01,000.00,025.9,025.3,000.0,034.1,027.7,010.1,0000.0,0001.88,0007.59,0001.31
2024-05-22 18:07:00,SystemResetWarning,0825.4,5.00,000.00,026.0,025.3,000.0,034.1,027.7,008.6,0000.0,0001.85,0006.53,0001.31
2024-05-22 18:08:00,SystemResetWarning,0825.4,4.99,000.00,026.0,025.3,000.0,034.1,027.7,008.6,0000.0,0001.83,0006.12,0001.32
2024-05-22 18:09:00,SystemResetWarning,0825.4,4.99,000.00,026.0,025.3,000.0,034.1,027.7,008.8,0000.0,0001.83,0006.31,0001.31
2024-05-22 18:10:00,SystemResetWarning,0825.4,5.00,000.00,026.0,025.3,000.0,034.1,027.7,008.2,0000.0,0001.82,0006.30,0001.32
2024-05-22 18:11:00,SystemResetWarning,0825.3,5.01,000.00,026.0,025.3,000.0,034.1,027.8,008.8,0000.0,0001.80,0006.13,0001.32
2024-05-22 18:12:00,SystemResetWarning,0825.3,5.01,000.00,026.0,025.3,000.0,034.2,027.8,008.6,0000.0,0001.74,0005.45,0001.32
2024-05-22 18:13:00,SystemResetWarning,0825.3,4.99,000.00,026.0,025.3,000.0,034.2,027.8,009.5,0000.0,0001.73,0003.87,0001.34
2024-05-22 18:14:00,SystemResetWarning,0825.3,4.99,000.00,026.0,025.4,000.0,034.2,027.8,009.5,0000.0,0001.74,0004.46,0001.35
2024-05-22 18:15:00,SystemResetWarning,0825.3,5.00,000.00,026.1,025.4,000.0,034.2,027.8,008.7,0000.0,0001.81,0005.09,0001.36
2024-05-22 18:16:00,SystemResetWarning,0825.3,5.01,000.00,026.1,025.4,000.0,034.2,027.9,008.3,0000.0,0001.84,0005.03,0001.36
2024-05-22 18:17:00,SystemResetWarning,0825.3,5.01,000.00,026.1,025.4,000.0,034.2,027.9,008.2,0000.0,0001.87,0004.90,0001.36
2024-05-22 18:18:00,SystemResetWarning,0825.3,5.01,000.00,026.1,025.4,000.0,034.2,027.9,007.7,0000.0,0001.89,0004.89,0001.37
2024-05-22 18:19:00,SystemResetWarning,0825.2,5.00,000.00,026.1,025.4,000.0,034.2,027.8,008.1,0000.0,0001.87,0004.80,0001.37
2024-05-22 18:20:00,SystemResetWarning,0825.2,4.99,000.00,026.1,025.4,000.0,034.3,027.8,007.7,0000.0,0001.87,0005.54,0001.37
2024-05-22 18:21:00,SystemResetWarning,0825.3,5.00,000.00,026.1,025.4,000.0,034.3,027.9,007.9,0000.0,0001.89,0005.89,0001.36
2024-05-22 18:22:00,SystemResetWarning,0825.2,5.01,000.00,026.1,025.4,000.0,034.3,027.9,008.0,0000.0,0001.91,0006.04,0001.35
2024-05-22 18:23:00,SystemResetWarning,0825.2,5.01,000.00,026.1,025.4,000.0,034.3,027.9,008.6,0000.0,0001.97,0006.21,0001.36
2024-05-22 18:24:00,SystemResetWarning,0825.2,4.99,000.00,026.1,025.4,000.0,034.3,027.9,009.3,0000.0,0002.01,0006.39,0001.36
2024-05-22 18:25:00,SystemResetWarning,0825.2,5.00,000.00,026.1,025.5,000.0,034.3,027.9,008.6,0000.0,0001.97,0005.58,0001.34
2024-05-22 18:26:00,SystemResetWarning,0825.2,4.99,000.00,026.2,025.5,000.0,034.3,027.9,008.2,0000.0,0001.93,0005.20,0001.33
2024-05-22 18:27:00,SystemResetWarning,0825.2,5.01,000.00,026.2,025.5,000.0,034.3,027.9,008.3,0000.0,0001.91,0004.90,0001.34
2024-05-22 18:28:00,SystemResetWarning,0825.1,5.02,000.00,026.2,025.5,000.0,034.3,027.9,008.8,0000.0,0001.89,0005.12,0001.34
2024-05-22 18:29:00,SystemResetWarning,0825.1,5.00,000.00,026.2,025.5,000.0,034.3,028.0,008.6,0000.0,0001.90,0005.35,0001.34
2024-05-22 18:30:00,SystemResetWarning,0825.1,4.99,000.00,026.2,025.5,000.0,034.4,027.9,008.3,0000.0,0001.93,0005.92,0001.34
2024-05-22 18:31:00,SystemResetWarning,0825.1,4.99,000.00,026.2,025.5,000.0,034.4,027.9,008.9,0000.0,0001.95,0006.46,0001.36
2024-05-22 18:32:00,SystemResetWarning,0825.1,5.00,000.00,026.2,025.5,000.0,034.4,028.0,009.3,0000.0,0001.93,0005.94,0001.35
2024-05-22 18:33:00,SystemResetWarning,0825.1,5.01,000.00,026.2,025.5,000.0,034.4,028.0,008.3,0000.0,0001.89,0005.77,0001.36
2024-05-22 18:34:00,SystemResetWarning,0825.0,5.02,000.00,026.2,025.6,000.0,034.4,028.0,007.8,0000.0,0001.81,0005.53,0001.35
2024-05-22 18:35:00,SystemResetWarning,0825.0,5.00,000.00,026.2,025.6,000.0,034.4,028.0,008.4,0000.0,0001.84,0005.57,0001.35
2024-05-22 18:36:00,SystemResetWarning,0824.9,4.98,000.00,026.3,025.6,000.0,034.4,028.0,008.8,0000.0,0001.89,0005.61,0001.36
2024-05-22 18:37:00,SystemResetWarning,0824.9,5.00,000.00,026.3,025.6,000.0,034.4,028.0,008.9,0000.0,0001.90,0005.63,0001.36
2024-05-22 18:38:00,SystemResetWarning,0824.9,5.01,000.00,026.3,025.6,000.0,034.4,028.0,009.0,0000.0,0001.89,0005.63,0001.36
2024-05-22 18:39:00,SystemResetWarning,0824.9,5.00,000.00,026.3,025.6,000.0,034.4,028.1,009.0,0000.0,0001.95,0005.77,0001.37
2024-05-22 18:40:00,SystemResetWarning,0824.9,4.99,000.00,026.3,025.6,000.0,034.5,028.1,009.9,0000.0,0001.97,0005.66,0001.38
2024-05-22 18:41:00,SystemResetWarning,0824.9,4.99,000.00,026.3,025.7,000.0,034.5,028.1,008.4,0000.0,0002.01,0005.33,0001.39
2024-05-22 18:42:00,SystemResetWarning,0824.9,5.01,000.00,026.3,025.7,000.0,034.5,028.1,008.7,0000.0,0001.98,0003.97,0001.40
2024-05-22 18:43:00,SystemResetWarning,0824.9,5.01,000.00,026.4,025.7,000.0,034.5,028.1,008.9,0000.0,0001.99,0003.88,0001.41
2024-05-22 18:44:00,SystemResetWarning,0824.9,5.00,000.00,026.4,025.7,000.0,034.5,028.1,008.5,0000.0,0002.00,0003.80,0001.42
2024-05-22 18:45:00,SystemResetWarning,0824.9,4.99,000.00,026.4,025.7,000.0,034.5,028.1,009.2,0000.0,0002.05,0004.00,0001.43
2024-05-22 18:46:00,SystemResetWarning,0824.8,5.00,000.00,026.4,025.7,000.0,034.5,028.1,008.2,0000.0,0002.05,0004.63,0001.43
2024-05-22 18:47:00,SystemResetWarning,0824.8,5.00,000.00,026.4,025.7,000.0,034.5,028.2,008.0,0000.0,0002.01,0005.41,0001.41
2024-05-22 18:48:00,SystemResetWarning,0824.8,5.00,000.00,026.4,025.7,000.0,034.6,028.2,008.2,0000.0,0002.05,0005.90,0001.43
2024-05-22 18:49:00,SystemResetWarning,0824.8,4.99,000.00,026.4,025.8,000.0,034.6,028.2,009.1,0000.0,0002.08,0006.06,0001.44
2024-05-22 18:50:00,SystemResetWarning,0824.7,5.01,000.00,026.4,025.8,000.0,034.6,028.2,008.3,0000.0,0002.06,0005.79,0001.44
2024-05-22 18:51:00,SystemResetWarning,0824.7,5.01,000.00,026.5,025.8,000.0,034.6,028.2,008.9,0000.0,0002.06,0005.83,0001.43
2024-05-22 18:52:00,SystemResetWarning,0824.8,5.00,000.00,026.5,025.8,000.0,034.6,028.2,008.8,0000.0,0002.03,0005.71,0001.44
2024-05-22 18:53:00,SystemResetWarning,0824.7,4.99,000.00,026.5,025.8,000.0,034.6,028.2,008.1,0000.0,0002.04,0006.08,0001.44
2024-05-22 18:54:00,SystemResetWarning,0824.7,5.00,000.00,026.5,025.8,000.0,034.6,028.2,008.2,0000.0,0002.07,0007.37,0001.45
2024-05-22 18:55:00,SystemResetWarning,0824.7,5.00,000.00,026.5,025.8,000.0,034.6,028.2,008.5,0000.0,0002.11,0007.71,0001.45
2024-05-22 18:56:00,SystemResetWarning,0824.7,5.01,000.00,026.5,025.8,000.0,034.6,028.3,008.7,0000.0,0002.13,0007.80,0001.45
2024-05-22 18:57:00,SystemResetWarning,0824.7,5.01,000.00,026.5,025.9,000.0,034.7,028.3,008.4,0000.0,0002.10,0007.44,0001.46
2024-05-22 18:58:00,SystemResetWarning,0824.7,5.01,000.00,026.5,025.9,000.0,034.7,028.3,009.1,0000.0,0002.12,0006.93,0001.47
2024-05-22 18:59:00,SystemResetWarning,0824.7,4.99,000.00,026.5,025.9,000.0,034.7,028.3,009.1,0000.0,0002.14,0006.62,0001.46
